x

9410230 - La Jolla, Ca (ljac1) Weather Station

10:30 - Thu 18th Sep 2014 All times are PDT. -7 hours from GMT.

  • Wind
    6mph, 8mph gusts
  • Sea Temp 73°f
  • Aire Temp 72°f
  • Sea Pressure 1011.5mb
  • 9410230 - La Jolla, Ca
  • 9410230 - La Jolla, Ca

More Historic Weather Station data

Upgrade to MSW Pro to gain access to the past 30 days of data for over 8000 Wavebouys and Weather Stations around the globe.

Join Pro

Comparision Forecast

View Surf forecast
   
jue 09/18 10:30 6 8 mph 1011.5mb 73f 72f
10:24 3 5 mph 1011.6mb 72f 72f
10:18 5 6 mph 1011.5mb 72f 72f
10:12 6 7 mph 1011.5mb 72f 72f
10:06 5 6 mph 1011.5mb 73f 72f
10:00 6 7 mph 1011.5mb 72f 72f
9:54 3 7 mph 1011.5mb 72f 72f
9:48 6 7 mph 1011.4mb 72f 72f
9:42 6 8 mph 1011.5mb 72f 72f
9:36 6 9 mph 1011.5mb 72f 72f
9:30 7 9 mph 1011.5mb 73f 72f
9:24 7 9 mph 1011.5mb 72f 72f
9:18 6 8 mph 1011.5mb 72f 72f
9:12 5 7 mph 1011.5mb 72f 72f
9:06 6 8 mph 1011.4mb 72f 72f
9:00 5 7 mph 1011.4mb 72f 72f
8:54 6 8 mph 1011.4mb 71f 72f
8:48  -  mph 1011.4mb 72f 72f
8:42  -  mph 1011.3mb 72f 72f
8:36  -  mph 1011.3mb 72f 71f
8:30 7 9 mph 1011.3mb 71f 72f
8:24 8 10 mph 1011.2mb 71f 72f
8:18 8 10 mph 1011.2mb 71f 72f
8:12 7 10 mph 1011.1mb 71f 72f
8:06 8 11 mph 1011mb 71f 72f
8:00 8 11 mph 1010.9mb 71f 72f
7:54 9 11 mph 1010.8mb 72f 72f
7:48 8 9 mph 1010.7mb 72f 72f
7:42 5 7 mph 1010.7mb 73f 72f
7:36 6 10 mph 1010.6mb 73f 71f
7:30 9 10 mph 1010.6mb 73f -
7:24 8 10 mph 1010.5mb 73f -
7:18 9 10 mph 1010.5mb 73f 72f
7:12 7 10 mph 1010.4mb 73f 72f
7:06 7 9 mph 1010.3mb 73f 72f
7:00 6 9 mph 1010.4mb 74f 72f
6:54 8 11 mph 1010.3mb 74f 72f
6:48 9 11 mph 1010.3mb 73f 72f
6:42 9 11 mph 1010.4mb 73f 72f
6:36 9 11 mph 1010.3mb 73f 72f
6:30 9 11 mph 1010.3mb 73f 72f
6:24 10 13 mph 1010.3mb 73f 72f
6:18 10 13 mph 1010.3mb 73f 72f
6:12 10 13 mph 1010.2mb 73f 72f
6:06 10 13 mph 1010.2mb 73f 72f
6:00 10 13 mph 1010.1mb 72f 72f
5:54 10 13 mph 1010mb 72f 72f
5:48 11 13 mph 1010mb 71f 72f
5:42 7 13 mph 1010.1mb 71f 73f
5:36 9 13 mph 1010mb 70f 73f
5:30 8 11 mph 1010mb 70f 73f
5:24 10 11 mph 1010mb 70f 73f
5:18 7 10 mph 1010.1mb 69f 73f
5:12 8 10 mph 1010.1mb 70f 73f
5:06 9 10 mph 1010.2mb 70f 73f
5:00 9 10 mph 1010.2mb 69f 73f
4:54 9 11 mph 1010.2mb 69f 73f
4:48 9 11 mph 1010.2mb 69f 73f
4:42 9 10 mph 1010.3mb 69f 73f
4:36 9 10 mph 1010.3mb 70f 74f
4:30 8 10 mph 1010.3mb 70f 74f
4:24 9 10 mph 1010.3mb 70f 73f
4:18 8 9 mph 1010.2mb 71f 73f
4:12 7 10 mph 1010.2mb 70f 74f
4:06 8 10 mph 1010.2mb 71f 74f
4:00 8 10 mph 1010.2mb 72f 74f
3:54 8 11 mph 1010.2mb 72f 74f
3:48 6 9 mph 1010.3mb 72f 75f
3:42 7 9 mph 1010.3mb 72f 75f
3:36 7 10 mph 1010.4mb 72f 75f
3:30 8 9 mph 1010.4mb 72f 74f
3:24 9 10 mph 1010.4mb 72f 74f
3:18 9 11 mph 1010.5mb 73f 74f
3:12 8 10 mph 1010.5mb 73f 74f
3:06 9
mph
1010.5mb 73f 74f
3:00 8 9 mph 1010.6mb 73f 74f
2:54 7 10 mph 1010.6mb 73f 74f
2:48 8 10 mph 1010.7mb 73f 74f
2:42 8 11 mph 1010.8mb 73f 74f
2:36 9 11 mph 1010.8mb 73f 74f
2:30 8 10 mph 1010.8mb 73f 74f
2:24 9 11 mph 1010.9mb 73f 74f
2:18 9 10 mph 1010.9mb 73f 74f
2:12 9 11 mph 1011mb 73f 74f
2:06 7 10 mph 1011mb 73f 74f
2:00 9 11 mph 1011mb 73f 74f
1:54 8 10 mph 1011.1mb 74f 74f
1:48 7 10 mph 1011.1mb 74f 74f
1:42 8 9 mph 1011.2mb 74f 74f
1:36 7 10 mph 1011.2mb 73f 74f
1:30 8 9 mph 1011.3mb 73f 74f
1:24 8 10 mph 1011.3mb 73f 74f
1:18 8 10 mph 1011.4mb 73f 74f
1:12 8 10 mph 1011.5mb 72f 74f
1:06 8 10 mph 1011.5mb 72f 74f
1:00 7 9 mph 1011.6mb 72f 74f
12:54 8 9 mph 1011.7mb 72f 74f
12:48 7 8 mph 1011.8mb 71f 73f
12:42 7 8 mph 1011.9mb 71f 73f
12:36 7 8 mph 1011.9mb 71f 73f
12:30 7 8 mph 1012mb 70f 73f
12:24 6 7 mph 1012mb 70f 74f
12:18 7 8 mph 1012mb 70f 73f
12:12 7 8 mph 1012mb 69f 73f
12:06 7 8 mph 1012.1mb 69f 73f
12:00 7 9 mph 1012.1mb 70f 73f
11:54 8 9 mph 1012.2mb 69f 73f
11:48 8 10 mph 1012.2mb 69f 73f
11:42 9 10 mph 1012.2mb 70f 73f
11:36 9
mph
1012.2mb 70f 73f
11:30 9 10 mph 1012.2mb 70f 73f
11:24 9 10 mph 1012.2mb 69f 73f
11:18 7 8 mph 1012.2mb 69f 73f
11:12 7 8 mph 1012.2mb 69f 73f
11:06 8
mph
1012.3mb 68f 73f
11:00 8 9 mph 1012.3mb 66f 73f
10:54 8 9 mph 1012.3mb 66f 73f
10:48 7 8 mph 1012.4mb 66f 73f
10:42 6 8 mph 1012.3mb 65f 73f
10:36 6 7 mph 1012.4mb 65f 73f
10:30 6 7 mph 1012.4mb 65f 73f
10:24 6 7 mph 1012.4mb 65f 73f
10:18 7
mph
1012.4mb 65f 73f
10:12 7 8 mph 1012.4mb 64f 73f
10:06 7 8 mph 1012.3mb 65f 73f
10:00 7 8 mph 1012.3mb 64f 73f
9:54 7
mph
1012.3mb 65f 73f
9:48 6
mph
1012.3mb 65f 73f
9:42 6 7 mph 1012.3mb 64f 73f
9:36 7 8 mph 1012.3mb 65f 72f
9:30 7 8 mph 1012.3mb 65f 72f
9:24 7 8 mph 1012.3mb 65f 72f
9:18 7 8 mph 1012.2mb 65f 72f
9:12 7 8 mph 1012.2mb 65f 72f
9:06 7 8 mph 1012.2mb 65f 72f
9:00 8
mph
1012.1mb 65f 72f
8:54 7 8 mph 1012mb 65f 72f
8:48 6 7 mph 1012mb 65f 72f
8:42 7
mph
1012mb 65f 73f
8:36 6 7 mph 1012mb 65f 73f
8:30 7
mph
1011.9mb 66f 73f
8:24 6 7 mph 1011.8mb 66f 73f
8:18 6
mph
1011.7mb 66f 73f
8:12 6
mph
1011.6mb 67f 72f
8:06 5
mph
1011.5mb 67f 72f
8:00 2
mph
1011.4mb 67f 73f
7:54 2 3 mph 1011.4mb 67f 73f
7:48 2 3 mph 1011.4mb 67f 73f
7:42 2
mph
1011.3mb 67f 73f
7:36 2
mph
1011.3mb 67f 72f
7:30 2
mph
1011.3mb 67f 72f
7:24  -  2 mph 1011.2mb 67f 72f
7:18 2
mph
1011.2mb 68f 72f
7:12 1 2 mph 1011.2mb 68f 72f
7:06  -  2 mph 1011.1mb 69f 72f
7:00 2
mph
1011.1mb 69f 72f
6:54 2
mph
1011mb 69f 72f
6:48 1 3 mph 1010.9mb 69f 72f
6:42 2 3 mph 1010.8mb 69f 72f
6:36  -  1 mph 1010.7mb 69f 72f
6:30  -  1 mph 1010.7mb 69f 72f
6:24  -  1 mph 1010.6mb 69f 72f
6:18  -  mph 1010.5mb 69f 72f
6:12  -  mph 1010.4mb 69f 72f
6:06  -  1 mph 1010.4mb 69f 71f
6:00 1 2 mph 1010.3mb 69f 71f
5:54 1 2 mph 1010.2mb 69f 71f
5:48  -  mph 1010.1mb 69f 72f
5:42  -  1 mph 1010mb 69f 71f
5:36  -  1 mph 1010mb 70f 71f
5:30  -  1 mph 1009.9mb 70f 71f
5:24 1
mph
1009.9mb 71f 71f
5:18  -  mph 1009.9mb 71f 71f
5:12  -  1 mph 1009.8mb 71f 71f
5:06  -  1 mph 1009.8mb 72f 71f
5:00  -  1 mph 1009.7mb 73f 71f
4:54 2
mph
1009.7mb 73f 72f
4:48  -  2 mph 1009.7mb 73f 72f
4:42 2
mph
1009.7mb 73f 72f
4:36 2 3 mph 1009.6mb 73f 72f
4:30 2 3 mph 1009.6mb 73f 72f
4:24 2 3 mph 1009.5mb 74f 72f
4:18 2
mph
1009.5mb 74f 72f
4:12 2 3 mph 1009.4mb 73f 72f
4:06 3 5 mph 1009.4mb 73f 72f
4:00 3 5 mph 1009.4mb 73f 72f
3:54 5
mph
1009.4mb 73f 72f
3:48 5
mph
1009.4mb 73f 72f
3:42 3 5 mph 1009.4mb 74f 71f
3:36 2 3 mph 1009.4mb 73f 71f
3:30  -  1 mph 1009.4mb 74f 72f
3:24  -  1 mph 1009.4mb 74f 72f
3:18 2
mph
1009.5mb 74f 71f
3:12 2
mph
1009.4mb 73f 71f
3:06  -  mph 1009.4mb 73f 71f
3:00  -  mph 1009.4mb 73f 71f
2:54  -  1 mph 1009.3mb 73f 71f
2:48  -  1 mph 1009.4mb 73f 71f
2:42 1 2 mph 1009.4mb 72f 71f
2:36  -  1 mph 1009.4mb 72f 72f
2:30  -  2 mph 1009.4mb 73f 72f
2:24 1 2 mph 1009.5mb 73f 72f
2:18 2
mph
1009.5mb 73f 72f
2:12  -  1 mph 1009.5mb 73f 72f
2:06 1 2 mph 1009.5mb 73f 72f
2:00 2
mph
1009.5mb 73f 73f
1:54 1 2 mph 1009.6mb 73f 73f
1:48  -  1 mph 1009.5mb 72f 73f
1:42  -  1 mph 1009.5mb 71f 73f
1:36 1
mph
1009.5mb 71f 73f
1:30  -  1 mph 1009.5mb 72f 73f
1:24  -  2 mph 1009.5mb 71f 73f
1:18 1 2 mph 1009.5mb 71f 73f
1:12  -  3 mph 1009.4mb 71f 73f
1:06 2 3 mph 1009.4mb 71f 73f
1:00 3
mph
1009.4mb 70f 73f
12:54 3 5 mph 1009.4mb 71f 73f
12:48 3 5 mph 1009.5mb 71f 73f
12:42 3
mph
1009.5mb 71f 73f
12:36 2 3 mph 1009.5mb 71f 73f
12:30 3
mph
1009.5mb 71f 73f
12:24 3
mph
1009.5mb 72f 73f
12:18 3
mph
1009.5mb 72f 73f
12:12 3 5 mph 1009.5mb 71f 73f
12:06 3
mph
1009.4mb 71f 74f
12:00 2 3 mph 1009.4mb 72f 74f
mié 09/17 11:54 3
mph
1009.4mb 72f 74f
11:48 2 3 mph 1009.4mb 73f 74f
11:42 2 3 mph 1009.4mb 73f 74f
11:36 2 3 mph 1009.4mb 73f 74f
11:30 2 3 mph 1009.4mb 73f 74f
11:24 2 3 mph 1009.4mb 73f 74f
11:18 2 3 mph 1009.4mb 73f 74f
11:12 3
mph
1009.4mb 73f 74f
11:06 2 3 mph 1009.3mb 73f 74f
11:00 2
mph
1009.3mb 73f 74f
10:54 2
mph
1009.3mb 73f 74f
10:48  -  1 mph 1009.2mb 73f 74f
10:42 1 2 mph 1009.2mb 73f 74f
10:36 2
mph
1009.2mb 72f 74f
10:30 2
mph
1009.2mb 71f 74f
10:24 2
mph
1009.2mb 70f 74f
10:18 2
mph
1009.2mb 67f 74f
10:12 2 3 mph 1009.1mb 67f 74f
10:06 2
mph
1009.1mb 66f 74f
10:00 1 2 mph 1009.1mb 66f 74f
9:54 1 2 mph 1009.1mb 67f 74f
9:48 1 2 mph 1009.1mb 67f 74f
9:42  -  1 mph 1009.1mb 69f 74f
9:36 1 2 mph 1009mb 68f 74f
9:30 1 2 mph 1009mb 67f 74f
9:24 1 2 mph 1009mb 67f 74f
9:18 2 3 mph 1009mb 67f 74f
9:12 3
mph
1008.9mb 67f 74f
9:06 3
mph
1008.9mb 67f 74f
9:00 3
mph
1008.8mb 67f 74f
8:54 2
mph
1008.8mb 67f 74f
8:48 2
mph
1008.8mb 68f 74f
8:42  -  1 mph 1008.7mb 68f 74f
8:36  -  mph 1008.6mb 69f 74f
8:30  -  mph 1008.5mb 71f 74f
8:24  -  2 mph 1008.5mb 71f 74f
8:18 2
mph
1008.4mb 71f 74f
8:12 2
mph
1008.3mb 70f 74f
8:06 2
mph
1008.2mb 69f 74f
8:00 2 3 mph 1008.1mb 69f 74f
7:54 3 5 mph 1008.1mb 70f 74f
7:48 3
mph
1008mb 70f 74f
7:42 3 5 mph 1008mb 70f 74f
7:36 5 6 mph 1007.9mb 70f 74f
7:30 6 7 mph 1007.8mb 70f 74f
7:24 6 7 mph 1007.8mb 69f 74f
7:18 6 7 mph 1007.8mb 69f 74f
7:12 7 8 mph 1007.7mb 69f 74f
7:06 6 7 mph 1007.6mb 69f 74f
7:00 6
mph
1007.5mb 69f 74f
6:54 6 7 mph 1007.5mb 69f 75f
6:48 5 6 mph 1007.5mb 69f 75f
6:42 2 3 mph 1007.4mb 68f 76f
6:36 2 3 mph 1007.4mb 68f 76f
6:30 3 6 mph 1007.3mb 68f 76f
6:24 5 6 mph 1007.3mb 68f 76f
6:18 3 5 mph 1007.2mb 68f 76f
6:12 3 6 mph 1007.2mb 68f 76f
6:06 6
mph
1007.3mb 67f 76f
6:00 5 6 mph 1007.2mb 68f 76f
5:54 5 6 mph 1007.2mb 68f 76f
5:48 5
mph
1007.1mb 68f 76f
5:42 5 6 mph 1007mb 69f 76f
5:36 6
mph
1007mb 69f 76f
5:30 5 6 mph 1007mb 69f 76f
5:24 6 7 mph 1007mb 69f 76f
5:18 6 8 mph 1007mb 69f 76f
5:12 6 7 mph 1007mb 69f 76f
5:06 6 7 mph 1007mb 69f 76f
5:00 7 8 mph 1007mb 69f 76f
4:54 7 8 mph 1007mb 69f 76f
4:48 6 7 mph 1007mb 69f 76f
4:42 6 7 mph 1006.9mb 70f 76f
4:36 6 7 mph 1006.8mb 70f 76f
4:30 6 7 mph 1006.9mb 70f 76f
4:24 6 8 mph 1006.8mb 70f 76f
4:18 6 7 mph 1006.8mb 70f 76f
4:12 7 8 mph 1006.8mb 70f 76f
4:06 7 8 mph 1006.8mb 70f 76f
4:00 7 8 mph 1006.8mb 70f 76f
3:54 6 8 mph 1006.8mb 70f 77f
3:48 5 8 mph 1006.9mb 70f 77f
3:42 6 7 mph 1006.9mb 70f 77f
3:36 5 6 mph 1006.9mb 71f 77f
3:30 5 6 mph 1006.9mb 71f 77f
3:24 5 6 mph 1007mb 71f 77f
3:18 6
mph
1007mb 72f 77f
3:12 5 6 mph 1007mb 72f 77f
3:06 5 7 mph 1007.1mb 71f 77f
3:00 6 7 mph 1007mb 71f 77f
2:54 6 8 mph 1007mb 71f 76f
2:48 6 8 mph 1007mb 71f 76f
2:42 6 8 mph 1007mb 71f 77f
2:36 7 8 mph 1007mb 71f 76f
2:30 7 8 mph 1007mb 71f 76f
2:24 8 9 mph 1007mb 70f 76f
2:18 7 9 mph 1007mb 71f 76f
2:12 6 8 mph 1007.1mb 71f 76f
2:06 8 9 mph 1007.2mb 70f 76f
2:00 8 10 mph 1007.2mb 70f 76f
1:54 9 11 mph 1007.2mb 71f 76f
1:48 8 10 mph 1007.3mb 71f 77f
1:42 8 9 mph 1007.3mb 71f 77f
1:36 8 9 mph 1007.3mb 71f 78f
1:30 7 8 mph 1007.3mb 71f 78f
1:24 6 8 mph 1007.3mb 71f 78f
1:18 7 8 mph 1007.3mb 71f 78f
1:12 6 7 mph 1007.5mb 71f 78f
1:06 7 8 mph 1007.5mb 70f 79f
1:00 6 8 mph 1007.5mb 70f 79f
12:54 5 6 mph 1007.6mb 70f 80f
12:48 3 5 mph 1007.6mb 69f 80f
12:42 3 5 mph 1007.7mb 69f 80f
12:36 2 3 mph 1007.7mb 68f 80f
12:30 1 2 mph 1007.7mb 67f 79f
12:24 2
mph
1007.7mb 67f 79f
12:18 2
mph
1007.6mb 67f 78f
12:12 2 3 mph 1007.7mb 65f 78f
12:06 2 3 mph 1007.7mb 65f 78f
12:00 2 3 mph 1007.7mb 65f 78f
11:54 2 3 mph 1007.8mb 64f 78f
11:48 2 3 mph 1007.8mb 64f 78f
11:42 2 3 mph 1007.8mb 64f 78f
11:36 2
mph
1007.8mb 64f 78f
11:30 2
mph
1007.8mb 64f 78f
11:24 2
mph
1007.8mb 65f 78f
11:12 3
mph
1007.9mb 66f 77f
11:06 3
mph
1007.9mb 67f 77f
11:00 2 3 mph 1007.9mb 67f 77f
10:54 3
mph
1007.9mb 67f 77f
10:48 3
mph
1007.9mb 67f 77f
10:42 3
mph
1007.9mb 66f 77f
10:36 2 3 mph 1007.9mb 66f 77f
10:30 3
mph
1007.9mb 65f 77f
10:24 3
mph
1007.9mb 65f 76f
10:18 3 5 mph 1007.8mb 65f 76f
10:12 3 5 mph 1007.8mb 66f 76f
10:06 5
mph
1007.8mb 66f 76f
10:00 3 5 mph 1007.9mb 66f 76f
9:54 3
mph
1007.9mb 66f 76f
9:48 3
mph
1007.9mb 67f 76f
9:42 3
mph
1007.9mb 67f 76f
9:36 2 3 mph 1007.9mb 67f 76f
9:30 3
mph
1007.9mb 66f 76f
9:24 2 3 mph 1007.8mb 66f 76f
9:18 2
mph
1007.8mb 65f 77f
9:12 1 2 mph 1007.7mb 65f 77f
9:06  -  1 mph 1007.7mb 65f 77f
9:00 1 2 mph 1007.6mb 65f 77f
8:54 2
mph
1007.6mb 65f 77f
8:48 1 2 mph 1007.5mb 65f 77f
8:42  -  1 mph 1007.5mb 65f 78f
8:36  -  1 mph 1007.4mb 65f 79f
8:30  -  1 mph 1007.4mb 65f 78f
8:24  -  1 mph 1007.4mb 65f 78f
8:18  -  1 mph 1007.4mb 65f 77f
8:12  -  1 mph 1007.3mb 65f 77f
8:06 1 2 mph 1007.3mb 65f 76f
8:00 1
mph
1007.4mb 65f 76f
7:54 1
mph
1007.3mb 65f 76f
7:48 1
mph
1007.2mb 65f 76f
7:42  -  1 mph 1007.2mb 66f 76f
7:36  -  mph 1007.1mb 66f 76f
7:30  -  mph 1007mb 66f 76f
7:24  -  1 mph 1007mb 66f 76f
7:18  -  mph 1007mb 66f 75f
7:12  -  2 mph 1006.9mb 66f 74f
7:06  -  mph 1006.9mb 66f 73f
7:00  -  1 mph 1006.8mb 66f 73f
6:54 1
mph
1006.7mb 67f 73f
6:48  -  1 mph 1006.7mb 67f 73f
6:42  -  1 mph 1006.7mb 67f 73f
6:36  -  1 mph 1006.6mb 67f 73f
6:30  -  2 mph 1006.7mb 68f 73f
6:24 1 2 mph 1006.6mb 68f 73f
6:18  -  2 mph 1006.6mb 68f 73f
6:12 1 2 mph 1006.5mb 68f 73f
6:06 2
mph
1006.4mb 69f 74f
6:00 1 2 mph 1006.4mb 69f 74f
5:54  -  2 mph 1006.3mb 70f 74f
5:48 1 2 mph 1006.2mb 71f 74f
5:42 1 2 mph 1006.2mb 71f 74f
5:36 2 5 mph 1006.2mb 71f 74f
5:30 3
mph
1006.1mb 71f 74f
5:24 2 3 mph 1006.1mb 71f 74f
5:18 2
mph
1006mb 71f 74f
5:12 2 3 mph 1006.1mb 71f 74f
5:06 1 2 mph 1006.1mb 71f 74f
5:00 2 3 mph 1006mb 71f 75f
4:54 1 3 mph 1006.1mb 71f 75f
4:48  -  1 mph 1006.1mb 71f 75f
4:42 1 2 mph 1006mb 71f 75f
4:36  -  2 mph 1006.1mb 71f 74f
4:30 1 2 mph 1006.1mb 70f 74f
4:24  -  1 mph 1006.2mb 71f 74f
4:18  -  mph 1006.3mb 72f 74f
4:12  -  mph 1006.3mb 72f 75f
4:06  -  1 mph 1006.3mb 72f 75f
4:00 1
mph
1006.3mb 72f 75f
3:54  -  1 mph 1006.2mb 72f 75f
3:48  -  mph 1006.2mb 72f 75f
3:42 1 2 mph 1006.1mb 72f 75f
3:36  -  1 mph 1006mb 72f 75f
3:30  -  1 mph 1006mb 72f 75f
3:24  -  1 mph 1006mb 72f 75f
3:18  -  mph 1006.1mb 72f 75f
3:12  -  1 mph 1006.1mb 72f 75f
3:06  -  1 mph 1006.2mb 72f 75f
3:00  -  1 mph 1006.3mb 72f 75f
2:54  -  1 mph 1006.3mb 72f 75f
2:48  -  1 mph 1006.3mb 72f 75f
2:42  -  2 mph 1006.3mb 72f 75f
2:36  -  2 mph 1006.3mb 72f 75f
2:30  -  1 mph 1006.3mb 71f 75f
2:24  -  2 mph 1006.3mb 71f 75f
2:18  -  2 mph 1006.3mb 71f 75f
2:12 2 3 mph 1006.4mb 71f 75f
2:06 3
mph
1006.4mb 71f 75f
2:00 2 3 mph 1006.3mb 71f 76f
1:54 2
mph
1006.3mb 71f 76f
1:48 2 3 mph 1006.3mb 71f 76f
1:42 2
mph
1006.3mb 71f 76f
1:36  -  1 mph 1006.3mb 71f 76f
1:30  -  mph 1006.3mb 70f 76f
1:24  -  1 mph 1006.3mb 70f 76f
1:18 1 2 mph 1006.4mb 70f 76f
1:12 2 3 mph 1006.5mb 70f 76f
1:06  -  mph 1006.6mb 70f 76f
1:00  -  mph 1006.6mb 70f 76f
12:54  -  mph 1006.7mb 68f 76f
12:48  -  mph 1006.8mb 67f 76f
12:42  -  mph 1006.8mb 66f 76f
12:36  -  mph 1006.9mb 65f 76f
12:30  -  mph 1006.8mb 65f 76f
12:24  -  mph 1006.9mb 66f 76f
12:18  -  mph 1006.9mb 65f 76f
12:12  -  2 mph 1006.9mb 64f 76f
12:06  -  2 mph 1006.9mb 64f 76f
12:00 2
mph
1007mb 64f 77f
mar 09/16 11:54 2 3 mph 1007mb 64f 76f
11:48  -  2 mph 1007mb 64f 76f
11:42 2 3 mph 1007mb 64f 76f
11:36 2 3 mph 1007.1mb 65f 76f
11:30  -  1 mph 1007.1mb 65f 76f
11:24 1 2 mph 1007.1mb 64f 77f
11:18  -  2 mph 1007mb 65f 77f
11:12 2 3 mph 1007mb 65f 77f
11:06  -  1 mph 1007mb 65f 77f
11:00  -  1 mph 1007.1mb 65f 77f
10:54  -  mph 1007.1mb 65f 78f
10:48  -  mph 1007.1mb 66f 78f
10:42  -  1 mph 1007mb 66f 78f
10:36 1 2 mph 1007mb 67f 78f
10:30  -  1 mph 1007mb 67f 78f
10:24  -  1 mph 1007mb 67f 78f
10:18  -  mph 1007mb 68f 78f
10:12  -  mph 1007.1mb 68f 78f
10:06  -  1 mph 1007.2mb 68f 78f
10:00  -  1 mph 1007.2mb 68f 78f
9:54  -  1 mph 1007.1mb 68f 78f
9:48  -  1 mph 1007.1mb 68f 78f
9:42 2 3 mph 1007.1mb 68f 78f
9:36 1 2 mph 1007.2mb 68f 78f
9:30 2 3 mph 1007.1mb 68f 78f
9:24 1 2 mph 1007mb 68f 78f
9:18 2 3 mph 1007mb 67f 78f
9:12 2 3 mph 1006.9mb 67f 79f
9:06  -  9 mph 1006.7mb 66f 79f
9:00 8 9 mph 1006.7mb 66f 80f
8:54 3 5 mph 1006.5mb 67f 81f
8:48 5
mph
1006.4mb 67f 82f
8:42 5 6 mph 1006.4mb 67f 82f
8:36 6 7 mph 1006.3mb 67f 82f
8:30 7 8 mph 1006.3mb 67f 82f
8:24 6 7 mph 1006.2mb 67f 81f
8:18 5 6 mph 1006.1mb 67f 80f
8:12 6
mph
1006.1mb 67f 80f
8:06  -  8 mph 1006mb 67f 81f
8:00 8 9 mph 1005.9mb 67f 82f
7:54 5 6 mph 1005.8mb 67f 83f
7:48 6 9 mph 1005.7mb 68f 82f
7:42 9 11 mph 1005.6mb 67f 82f
7:36 11 16 mph 1005.4mb 67f -
7:30 17 21 mph 1005.3mb 67f -
7:24 17 20 mph 1005.2mb 67f -
7:18 18 22 mph 1005.1mb 67f -
7:12 5 6 mph 1004.8mb 67f 89f
7:06 5 6 mph 1004.7mb 67f 88f
7:00 5
mph
1004.7mb 68f 87f
6:54 2 3 mph 1004.6mb 68f 86f
6:48 3
mph
1004.6mb 69f 87f
6:42 2 5 mph 1004.7mb 69f 88f
6:36 5 7 mph 1004.7mb 69f 87f
6:30 7 10 mph 1004.7mb 69f 87f
6:24 8 10 mph 1004.9mb 69f 87f
6:18 11 14 mph 1005.1mb 69f 85f
6:12 15 20 mph 1005.2mb 69f 85f
6:06 17 20 mph 1005.3mb 69f 84f
6:00 11 16 mph 1005.6mb 69f 84f
5:54 7 43 mph 1006.1mb 69f 87f
5:48 28 43 mph 1006mb 69f 89f
5:42 2 6 mph 1005.9mb 69f 83f
5:36 6 7 mph 1005.6mb 68f 82f
5:30 7 9 mph 1005.8mb 68f 80f
5:24 6
mph
1005.8mb 68f 79f
5:18 1 2 mph 1005.7mb 67f 79f
5:12  -  2 mph 1005.7mb 67f 79f
5:06 2 6 mph 1005.8mb 67f 77f
5:00 3 5 mph 1005.9mb 67f 76f
4:54 3 6 mph 1005.8mb 68f 76f
4:48 6
mph
1005.9mb 69f 76f
4:42 6
mph
1005.9mb 69f 76f
4:36 6 8 mph 1005.8mb 69f 76f
4:30 7 9 mph 1005.8mb 69f 77f
4:24 9 11 mph 1005.9mb 69f 77f
4:18 7 8 mph 1005.9mb 69f 77f
4:12 6 7 mph 1005.8mb 69f 77f
4:06 7 8 mph 1005.7mb 69f 77f
4:00 7 8 mph 1005.7mb 69f 77f
3:54 7 8 mph 1005.7mb 69f 77f
3:48 7 8 mph 1005.6mb 69f 77f
3:42 10 11 mph 1005.6mb 69f 77f
3:36 10
mph
1005.6mb 69f 77f
3:30 9 10 mph 1005.5mb 69f 77f
3:24 9
mph
1005.6mb 69f 77f
3:18 8 9 mph 1005.6mb 69f 77f
3:12 8
mph
1005.8mb 69f 77f
3:06 6 8 mph 1005.7mb 68f 77f
3:00 7
mph
1005.8mb 68f 77f
2:54 7 10 mph 1005.7mb 68f 77f
2:48 10 11 mph 1005.8mb 68f 77f
2:42 8 9 mph 1005.8mb 68f 78f
2:36 8 11 mph 1005.9mb 68f 78f
2:30 11 15 mph 1005.8mb 69f 78f
2:24 13 14 mph 1006.1mb 69f 80f
2:18 10 13 mph 1006.2mb 69f 79f
2:12 10 13 mph 1006.9mb 70f 77f
2:06 5 6 mph 1006.5mb 70f 77f
2:00 6
mph
1006.4mb 70f 77f
1:54 6
mph
1006.5mb 71f 77f
1:48 6
mph
1006.6mb 71f 77f
1:42 5
mph
1006.7mb 71f 77f
1:36 5 6 mph 1006.6mb 71f 76f
1:30 6
mph
1006.6mb 71f 76f
1:24 5 6 mph 1006.6mb 71f 77f
1:18 5 6 mph 1006.6mb 70f 77f
1:12 3 5 mph 1006.7mb 70f 78f
1:06 3
mph
1006.8mb 70f 78f
1:00 2 5 mph 1006.8mb 69f 78f
12:54 5
mph
1006.9mb 68f 77f
12:48 5 6 mph 1007mb 68f 77f
12:42 3 5 mph 1007.1mb 68f 78f
12:36 1 2 mph 1007.2mb 68f 79f
12:30 1 3 mph 1007.3mb 67f 79f
12:24 2 3 mph 1007.4mb 67f 79f
12:18 3
mph
1007.5mb 67f 79f
12:12 2 3 mph 1007.5mb 67f 79f
12:06 2 3 mph 1007.6mb 67f 79f
12:00 2 3 mph 1007.6mb 67f 79f
11:54 2
mph
1007.6mb 67f 78f
11:48 2 3 mph 1007.7mb 67f 78f
11:42 3
mph
1007.7mb 69f 78f
11:36 2 3 mph 1007.7mb 70f 78f
11:30 2 3 mph 1007.7mb 71f 78f
11:24 2 3 mph 1007.8mb 71f 78f
11:18 1 2 mph 1007.8mb 71f 78f
11:12 2 3 mph 1007.9mb 71f 78f
11:06 2
mph
1007.9mb 71f 78f
11:00 1 2 mph 1007.9mb 71f 78f
10:54 2 3 mph 1008mb 71f 78f
10:48 2
mph
1008mb 71f 78f
10:42  -  1 mph 1008.1mb 71f 80f
10:36  -  1 mph 1008mb 71f 79f
10:30  -  1 mph 1008.1mb 71f 78f
10:24 1
mph
1008.2mb 71f 78f
10:18 2 3 mph 1008.3mb 71f 78f
10:12 1 2 mph 1008.3mb 70f 78f
10:06  -  1 mph 1008.3mb 70f 78f
10:00  -  2 mph 1008.4mb 69f 78f
8:54  -  2 mph 1008.5mb 67f 77f
8:48 2 3 mph 1008.5mb 67f 76f
8:42 3
mph
1008.5mb - 76f
8:36 2
mph
1008.4mb - 76f
8:30 2
mph
1008.3mb 70f 78f
8:24  -  2 mph 1008.1mb 70f 80f
8:18  -  2 mph 1008.1mb 70f 79f
8:12 1 2 mph 1008mb 70f 79f
8:06 1 2 mph 1007.9mb 70f 78f
8:00 1 2 mph 1008mb 69f 78f
7:54  -  mph 1008mb 68f 81f
7:48  -  mph 1007.9mb 68f 79f
7:42  -  mph 1007.8mb 68f 78f
7:30  -  mph 1007.7mb - -
7:24  -  mph - 69f 76f
7:18  -  mph - - 75f
7:12  -  mph 1007.6mb - -
6:54  -  mph 1007.7mb - -
6:48  -  mph - - 73f
6:24  -  mph - - 73f
6:18  -  mph - - 73f
6:12  -  mph - - 73f
6:06  -  mph - - 73f
6:00  -  1 mph - - 74f
5:54 1 2 mph - - 74f
5:48  -  1 mph 1007.5mb - 74f
5:42  -  mph 1007.5mb - 73f
5:36  -  1 mph 1007.5mb - 73f
5:30  -  1 mph - - 74f
5:24  -  2 mph - - 74f
5:18 1 2 mph 1007.3mb - 73f
5:12  -  1 mph 1007.3mb - 74f
5:06  -  2 mph 1007.3mb - 74f
5:00 2 5 mph 1007.4mb 68f 74f
4:54 2 3 mph 1007.3mb 69f 74f
4:48 1 3 mph 1007.3mb 69f 73f
4:42 3 5 mph 1007.3mb 69f 73f
4:36 3 5 mph 1007.2mb 69f 73f
4:30  -  mph 1007mb 69f 73f
4:24  -  mph 1007.1mb 69f 73f
4:18  -  1 mph 1007.2mb 69f 73f
4:12  -  mph 1007.4mb 70f 73f
4:06  -  1 mph 1007.4mb 71f 73f
4:00  -  mph 1007.5mb 70f 73f
3:54  -  mph 1007.5mb 70f 73f
3:48  -  mph 1007.5mb 70f 73f
3:42  -  mph 1007.6mb 70f 73f
3:36  -  mph 1007.7mb 71f 73f
3:30  -  mph - 72f 73f
3:24  -  mph - 72f 73f
3:18  -  mph 1007.7mb 71f 73f
3:12  -  1 mph 1007.9mb 71f 73f
3:06  -  1 mph 1008mb 71f 73f
3:00 1
mph
1008mb 71f 73f
2:54  -  1 mph 1008.1mb 71f 73f
2:48  -  1 mph 1008.1mb 71f 73f
2:42 1
mph
1008.1mb 71f 73f
2:36 1
mph
1008.2mb 72f 73f
2:30  -  mph 1008.3mb 72f 73f
2:24  -  1 mph 1008.3mb 71f 73f
2:18  -  1 mph 1008.3mb 71f 73f
2:12  -  1 mph 1008.3mb 71f 74f
2:06  -  2 mph 1008.3mb 70f 74f
2:00 1 5 mph 1008.4mb 70f 74f
1:54 3
mph
1008.5mb 71f 74f
1:48 1 2 mph 1008.4mb 71f 74f
1:42  -  1 mph 1008.5mb 71f 74f
1:36 1 3 mph 1008.6mb 72f 73f
1:30 3
mph
1008.5mb 72f 73f
1:24 2 3 mph 1008.5mb 72f 74f
1:18 3
mph
1008.6mb 72f 74f
1:12 3
mph
1008.7mb 72f 74f
1:06 1 2 mph 1008.8mb 72f 74f
1:00 1 2 mph 1008.8mb 72f 74f
12:54 2
mph
1008.7mb 72f 74f
12:48 2
mph
1008.8mb 71f 74f
12:42 2 3 mph 1008.8mb 70f 74f
12:36 2
mph
1008.8mb 69f 74f
12:30 2
mph
1008.7mb 69f 74f
12:24 2
mph
1008.8mb 69f 74f
12:18  -  mph 1008.8mb - -
12:12 3
mph
1008.9mb - 74f
12:06 2
mph
1009mb - 74f
12:00 1 2 mph 1009mb - 74f
lun 09/15 11:54  -  mph 1009mb - 74f
11:48 2 3 mph 1009mb - 74f
11:42  -  mph - - 74f
11:30  -  mph - - 74f
11:24  -  mph - - 74f
11:18  -  mph - - 74f
11:12  -  mph - - 75f
11:06  -  mph - - 75f
11:00  -  mph - - 75f
10:54  -  mph - - 75f
10:48  -  mph - 70f 75f
10:42  -  mph - 69f 75f
10:36  -  mph - 69f 76f
10:30  -  mph 1009.2mb 69f 76f
10:24 8 9 mph 1009.2mb 70f 77f
10:18  -  mph 1009.2mb 69f 77f
10:12 3 5 mph 1009.2mb 69f 76f
10:06 5
mph
1009.2mb 68f 76f
10:00  -  mph 1009.1mb 67f -
9:54  -  2 mph 1009mb 66f -
9:48  -  mph 1009mb 67f 78f
9:42 2 5 mph 1009mb 67f 78f
9:36 2 5 mph 1009mb 66f 76f
9:30  -  mph - 66f -
9:24  -  mph - 66f -
9:18  -  mph - - 75f
9:12  -  mph - - 75f
9:06  -  mph - - 74f
9:00  -  mph - - 75f
8:54  -  mph 1008.8mb - -
8:48  -  mph 1008.7mb - -
8:42  -  mph 1008.6mb - 76f
8:36  -  mph 1008.5mb - 76f
8:30  -  mph 1008.5mb - 76f
8:24  -  1 mph 1008.5mb - 76f
8:18  -  mph 1008.5mb 66f 76f
8:12  -  mph 1008.5mb 67f 76f
8:06  -  mph 1008.4mb 67f 76f
8:00 1 2 mph - - 76f
7:54 2
mph
- - 76f
7:48  -  mph 1008.1mb - -
7:42  -  mph 1008.1mb - -
7:36  -  mph 1008.1mb - -
7:30  -  mph - 68f 77f
7:24  -  mph - 68f 77f
7:18 2 3 mph - 68f 77f
7:12 3
mph
- 68f 77f
7:06 2 5 mph - 68f 77f
7:00 2
mph
1007.9mb 68f 77f
6:54 1 2 mph 1008mb 68f 77f
6:48 2 5 mph 1007.9mb 67f 76f
6:42 5 6 mph 1007.9mb 67f 76f
6:36 3
mph
1007.8mb 67f 77f
6:30 2 3 mph 1007.8mb 67f 77f
6:24 2 3 mph 1007.7mb 67f 78f
6:18 2
mph
1007.7mb 67f 78f
6:12 2
mph
1007.7mb 67f 79f
6:06 2
mph
1007.7mb 67f 79f
6:00 1 2 mph 1007.7mb 67f 80f
5:54 2
mph
1007.5mb 66f 81f
5:48 1 2 mph 1007.5mb 66f 82f
5:42  -  1 mph 1007.4mb 66f 81f
5:36 1 2 mph 1007.4mb 66f 81f
5:30 1
mph
1007.4mb 66f 81f
5:24  -  1 mph 1007.4mb 66f 82f
5:18  -  1 mph 1007.3mb 66f 82f
5:12 1 2 mph 1007.3mb 66f 81f
5:06 2
mph
1007.2mb 66f 80f
5:00 1 2 mph 1007.3mb 66f 82f
4:54 1 2 mph 1007.2mb 67f 82f
4:48 1 2 mph 1007.3mb 66f 81f
4:42 2
mph
1007.3mb 67f 82f
4:36 1 2 mph 1007.3mb 66f 82f
4:30 1 2 mph 1007.2mb 66f 82f
4:24 1 2 mph 1007.2mb 66f 83f
4:18  -  1 mph 1007.2mb 66f 83f
4:12  -  1 mph 1007.2mb 66f 84f
4:06  -  mph 1007.2mb 66f 83f
4:00  -  1 mph 1007.2mb 66f 82f
3:54 1
mph
1007.2mb 66f 82f
3:48 1 2 mph 1007.2mb 66f 82f
3:42 1
mph
1007.3mb 66f 81f
3:36 2 3 mph 1007.3mb 66f 80f
3:30 2 3 mph 1007.3mb 66f 79f
3:24 1 2 mph 1007.4mb 66f 79f
3:18 2
mph
1007.3mb 66f 78f
3:12 2 3 mph 1007.4mb 66f 78f
3:06 3 5 mph 1007.4mb 66f 78f
3:00 2 3 mph 1007.5mb 66f 77f
2:54 2 3 mph 1007.5mb 66f 77f
2:48 3 5 mph 1007.5mb 66f 76f
2:42 3 5 mph 1007.6mb 66f 76f
2:36 3
mph
1007.7mb 66f 76f
2:30 2 3 mph 1007.8mb 66f 77f
2:24 2 3 mph 1007.8mb 66f 77f
2:18 5 6 mph 1007.9mb 66f 76f
2:12 6
mph
1008mb 66f 76f
2:06 6
mph
1008mb 66f 76f
2:00 7
mph
1008mb 66f 76f
1:54 6 7 mph 1008.1mb 67f 76f
1:48 6
mph
1008.2mb 67f 76f
1:42 6
mph
1008.2mb 68f 76f
1:36 6 7 mph 1008.3mb 70f 76f
1:30 7
mph
1008.3mb 70f 76f
1:24 7 8 mph 1008.3mb 70f 76f
1:18 7
mph
1008.4mb 70f 76f
1:12 7 8 mph 1008.5mb 70f 76f
1:06 7
mph
1008.5mb 71f 76f
1:00 6
mph
1008.5mb 71f 76f
12:54 6 7 mph 1008.5mb 71f 76f
12:48 6 7 mph 1008.6mb 71f 76f
12:42 6 7 mph 1008.7mb 71f 76f
12:36 7
mph
1008.7mb 71f 76f
12:30 7
mph
1008.7mb 71f 76f
12:24 7 8 mph 1008.8mb 71f 76f
12:18 7
mph
1008.8mb 71f 76f
12:12 6
mph
1008.8mb 71f 76f
12:06 6
mph
1008.9mb 71f 76f
12:00 6
mph
1008.9mb 71f 76f
11:54 5 6 mph 1009mb 71f 77f
11:48 3 5 mph 1009mb 71f 77f
11:42 3
mph
1009.1mb 71f 78f
11:36 1 2 mph 1009.1mb 70f 78f
11:30 2
mph
1009.1mb 70f 78f
11:24  -  1 mph 1009.2mb 70f 79f
11:18  -  1 mph 1009.3mb 70f 78f
11:12 1 2 mph 1009.2mb 70f 77f
11:06 2
mph
1009.2mb 70f 77f
11:00 1 2 mph 1009.2mb 70f 77f
10:54  -  1 mph 1009.3mb 70f 78f
10:48  -  1 mph 1009.3mb 69f 78f
10:42  -  2 mph 1009.4mb 69f 78f
10:36 2
mph
1009.3mb 69f 77f
10:30 1 2 mph 1009.2mb 69f 77f
10:24  -  1 mph 1009.2mb 69f 77f
10:18  -  mph 1009.3mb 69f 77f
10:12  -  1 mph 1009.3mb 68f 76f
10:06  -  1 mph 1009.3mb 67f 77f
10:00  -  1 mph 1009.3mb 67f 76f
9:54 1 2 mph 1009.3mb 67f 76f
9:48 1 2 mph 1009.3mb 66f 76f
9:42 2
mph
1009.2mb 66f 76f
9:36 1
mph
1009.2mb 66f 76f
9:30  -  1 mph 1009.2mb 67f 77f
9:24  -  2 mph 1009.2mb 67f 76f
9:18 1
mph
1009.2mb 65f 76f
9:12  -  1 mph 1009.2mb 64f 76f
9:06 1
mph
1009.2mb 64f 76f
9:00 1
mph
1009.2mb 64f 76f
8:54  -  1 mph 1009.2mb 65f 76f
8:48  -  2 mph 1009.2mb 65f 76f
8:42 2
mph
1009.2mb 65f 75f
8:36 1 2 mph 1009.2mb 65f 76f
8:30 1
mph
1009.1mb 65f 77f
8:24  -  1 mph 1009.1mb 65f 77f
8:18  -  1 mph 1009.1mb 65f 76f
8:12  -  1 mph 1009mb 65f 77f
8:06  -  mph 1009mb 65f 76f
8:00  -  mph 1009mb 65f 76f
7:54  -  mph 1008.9mb 65f 74f
7:48  -  mph 1009mb 65f 74f
7:42  -  mph 1009mb 65f 74f
7:36  -  mph 1008.9mb 65f 74f
7:30  -  mph 1008.9mb 65f 73f
7:24  -  1 mph 1008.8mb 65f 73f
7:18  -  mph 1008.8mb 65f 73f
7:12  -  mph 1008.8mb 65f 72f
7:06  -  mph 1008.8mb 65f 72f
7:00  -  mph 1008.8mb 65f 72f
6:54  -  mph 1008.7mb 65f 72f
6:48  -  1 mph 1008.6mb 66f 72f
6:42  -  mph 1008.6mb 66f 71f
6:36  -  mph 1008.6mb 66f 71f
6:30  -  mph 1008.5mb 67f 71f
6:24  -  1 mph 1008.5mb 67f 71f
6:18  -  1 mph 1008.4mb 68f 71f